| time (UTC) | temp C | wind direction | speed KPH | gust KPH | rain 1hr cm | rain 24hr cm | rain mn cm | humidity % | barometer mb |
| 20260903230044 | 17 | 197 | 0.0 | 0.0 | 0.00 | 0.84 | 0.23 | 50 | 1006.3 |
| 20260903224544 | 17 | 193 | 0.0 | 0.0 | 0.00 | 0.84 | 0.23 | 49 | 1006.5 |
| 20260903223053 | 17 | 201 | 0.0 | 0.0 | 0.00 | 0.84 | 0.23 | 49 | 1006.7 |
| 20260903221542 | 17 | 201 | 0.0 | 0.0 | 0.00 | 0.84 | 0.23 | 51 | 1006.7 |
| 20260903220042 | 17 | 258 | 0.0 | 0.0 | 0.00 | 0.84 | 0.23 | 48 | 1006.5 |
| 20260903214543 | 17 | 258 | 0.0 | 0.0 | 0.00 | 0.84 | 0.23 | 51 | 1006.6 |
| 20260903213044 | 17 | 258 | 0.0 | 0.0 | 0.00 | 0.84 | 0.23 | 49 | 1007.0 |
| 20260903211557 | 17 | 256 | 0.0 | 0.0 | 0.00 | 0.84 | 0.23 | 48 | 1007.3 |
| 20260903210040 | 17 | 255 | 0.0 | 0.0 | 0.00 | 0.84 | 0.23 | 48 | 1007.1 |
| 20260903204539 | 17 | 254 | 0.0 | 0.0 | 0.00 | 0.84 | 0.23 | 48 | 1007.2 |
| 20260903203040 | 17 | 254 | 0.0 | 0.0 | 0.00 | 0.84 | 0.23 | 49 | 1007.6 |
| 20260903201536 | 17 | 254 | 0.0 | 0.0 | 0.00 | 0.84 | 0.23 | 50 | 1007.7 |
| 20260903200033 | 16 | 254 | 0.0 | 0.0 | 0.00 | 0.84 | 0.23 | 49 | 1007.8 |
| 20260903194533 | 16 | 254 | 0.0 | 0.0 | 0.00 | 0.84 | 0.23 | 50 | 1008.0 |
| 20260903193031 | 17 | 254 | 0.0 | 0.0 | 0.00 | 0.84 | 0.23 | 50 | 1007.7 |
| 20260903191531 | 16 | 253 | 0.0 | 0.0 | 0.00 | 0.84 | 0.23 | 51 | 1007.9 |
| 20260903190030 | 16 | 254 | 0.0 | 0.0 | 0.00 | 0.84 | 0.23 | 51 | 1008.0 |
| 20260903184530 | 16 | 253 | 0.0 | 0.0 | 0.00 | 0.84 | 0.23 | 52 | 1008.2 |
| 20260903183029 | 16 | 253 | 0.0 | 0.0 | 0.00 | 0.84 | 0.23 | 53 | 1008.1 |
| 20260903181527 | 16 | 253 | 0.0 | 0.0 | 0.00 | 0.84 | 0.23 | 52 | 1008.2 |
| 20260903180027 | 17 | 254 | 0.0 | 0.0 | 0.00 | 0.84 | 0.23 | 51 | 1008.4 |
| 20260903174534 | 16 | 254 | 0.0 | 0.0 | 0.03 | 0.84 | 0.23 | 53 | 1008.4 |
| 20260903173034 | 16 | 253 | 0.0 | 0.0 | 0.03 | 0.84 | 0.23 | 57 | 1008.5 |
| 20260903171521 | 16 | 251 | 0.0 | 0.0 | 0.03 | 0.84 | 0.23 | 56 | 1008.5 |
| 20260903170028 | 15 | 257 | 0.0 | 0.0 | 0.03 | 0.84 | 0.23 | 54 | 1008.5 |
| 20260903164518 | 15 | 257 | 0.0 | 0.0 | 0.00 | 0.81 | 0.20 | 53 | 1008.3 |
| 20260903163016 | 15 | 258 | 0.0 | 0.0 | 0.00 | 0.81 | 0.20 | 57 | 1008.4 |
| 20260903161512 | 14 | 168 | 0.0 | 0.0 | 0.00 | 0.81 | 0.20 | 63 | 1008.3 |
| 20260903160010 | 14 | 126 | 0.0 | 0.0 | 0.00 | 0.81 | 0.20 | 64 | 1008.5 |
| 20260903154509 | 14 | 112 | 0.0 | 0.0 | 0.00 | 0.81 | 0.20 | 68 | 1008.5 |
| 20260903153005 | 13 | 96 | 0.0 | 0.0 | 0.00 | 0.81 | 0.20 | 72 | 1008.5 |
| 20260903151503 | 13 | 125 | 0.0 | 0.0 | 0.00 | 0.81 | 0.20 | 78 | 1008.6 |
| 20260903150101 | 13 | 115 | 0.0 | 0.0 | 0.00 | 0.81 | 0.20 | 82 | 1008.6 |
| 20260903144602 | 12 | 113 | 0.0 | 0.0 | 0.00 | 0.81 | 0.20 | 80 | 1008.7 |
| 20260903143105 | 12 | 106 | 0.0 | 0.0 | 0.00 | 0.81 | 0.20 | 80 | 1008.6 |
| 20260903141555 | 11 | 85 | 0.0 | 0.0 | 0.00 | 0.81 | 0.20 | 86 | 1008.5 |
| 20260903140055 | 11 | 135 | 0.0 | 0.0 | 0.00 | 0.81 | 0.20 | 87 | 1008.5 |
| 20260903134601 | 11 | 146 | 0.0 | 0.0 | 0.00 | 0.81 | 0.20 | 86 | 1008.5 |
| 20260903133105 | 11 | 146 | 0.0 | 0.0 | 0.00 | 0.81 | 0.20 | 86 | 1008.3 |
| 20260903131552 | 11 | 146 | 0.0 | 0.0 | 0.00 | 0.81 | 0.20 | 85 | 1008.4 |
| 20260903130117 | 11 | 146 | 0.0 | 0.0 | 0.00 | 0.81 | 0.20 | 85 | 1008.2 |
| 20260903124557 | 11 | 146 | 0.0 | 0.0 | 0.00 | 0.81 | 0.20 | 86 | 1008.0 |
| 20260903123049 | 11 | 146 | 0.0 | 0.0 | 0.00 | 0.81 | 0.20 | 87 | 1007.9 |
| 20260903121545 | 11 | 146 | 0.0 | 0.0 | 0.00 | 0.81 | 0.20 | 89 | 1007.7 |
| 20260903120044 | 11 | 146 | 0.0 | 0.0 | 0.00 | 0.81 | 0.20 | 91 | 1007.7 |
| 20260903114544 | 11 | 146 | 0.0 | 0.0 | 0.00 | 0.81 | 0.20 | 91 | 1007.5 |
| 20260903113044 | 11 | 146 | 0.0 | 0.0 | 0.00 | 0.81 | 0.20 | 91 | 1007.6 |
| 20260903111542 | 11 | 146 | 0.0 | 0.0 | 0.00 | 0.81 | 0.20 | 91 | 1007.6 |
| 20260903110044 | 11 | 146 | 0.0 | 0.0 | 0.03 | 0.81 | 0.20 | 89 | 1007.3 |
| 20260903104540 | 11 | 146 | 0.0 | 0.0 | 0.05 | 0.81 | 0.20 | 90 | 1007.1 |
| 20260903103039 | 11 | 146 | 0.0 | 0.0 | 0.10 | 0.81 | 0.20 | 89 | 1007.3 |
| 20260903101538 | 11 | 146 | 0.0 | 0.0 | 0.13 | 0.81 | 0.20 | 90 | 1007.3 |
| 20260903100039 | 11 | 146 | 0.0 | 0.0 | 0.15 | 0.79 | 0.18 | 90 | 1007.2 |
| 20260903094545 | 11 | 146 | 0.0 | 0.0 | 0.13 | 0.76 | 0.15 | 89 | 1007.4 |
| 20260903093034 | 12 | 146 | 0.0 | 0.0 | 0.08 | 0.71 | 0.10 | 90 | 1007.4 |
| 20260903091534 | 12 | 146 | 0.0 | 0.0 | 0.08 | 0.69 | 0.08 | 89 | 1007.2 |
| 20260903090039 | 12 | 146 | 0.0 | 0.0 | 0.03 | 0.64 | 0.03 | 89 | 1007.0 |
| 20260903084531 | 12 | 146 | 0.0 | 0.0 | 0.03 | 0.64 | 0.03 | 88 | 1006.7 |
| 20260903083033 | 12 | 146 | 0.0 | 0.0 | 0.03 | 0.64 | 0.03 | 88 | 1006.6 |
| 20260903081526 | 12 | 146 | 0.0 | 0.0 | 0.00 | 0.61 | 0.00 | 88 | 1006.4 |
| 20260903080024 | 12 | 146 | 0.0 | 0.0 | 0.00 | 0.61 | 0.00 | 87 | 1006.2 |
| 20260903074522 | 12 | 146 | 0.0 | 0.0 | 0.00 | 0.61 | 0.00 | 86 | 1006.1 |
| 20260903073021 | 12 | 146 | 0.0 | 0.0 | 0.00 | 0.61 | 0.00 | 83 | 1005.8 |
| 20260903071518 | 12 | 143 | 0.0 | 0.0 | 0.03 | 0.61 | 0.00 | 84 | 1005.8 |
| 20260903070019 | 12 | 143 | 0.0 | 0.0 | 0.23 | 0.61 | 0.00 | 85 | 1006.0 |
| 20260903064515 | 12 | 142 | 0.0 | 0.0 | 0.28 | 0.61 | 0.61 | 87 | 1005.7 |
| 20260903063024 | 12 | 139 | 0.0 | 0.0 | 0.33 | 0.61 | 0.61 | 86 | 1006.0 |
| 20260903061512 | 12 | 170 | 0.0 | 0.0 | 0.30 | 0.56 | 0.56 | 85 | 1006.5 |
| 20260903060031 | 12 | 252 | 0.0 | 0.0 | 0.15 | 0.38 | 0.38 | 85 | 1006.6 |
| 20260903054509 | 13 | 253 | 0.0 | 0.0 | 0.13 | 0.33 | 0.33 | 84 | 1006.6 |
| 20260903053008 | 13 | 160 | 0.0 | 0.0 | 0.13 | 0.28 | 0.28 | 83 | 1006.2 |
| 20260903051507 | 13 | 150 | 0.0 | 0.0 | 0.13 | 0.25 | 0.25 | 83 | 1005.7 |
| 20260903050008 | 13 | 148 | 0.0 | 0.0 | 0.13 | 0.23 | 0.23 | 82 | 1005.7 |
| 20260903044507 | 13 | 166 | 0.0 | 0.0 | 0.10 | 0.18 | 0.18 | 83 | 1006.0 |
| 20260903043020 | 13 | 176 | 0.0 | 0.0 | 0.13 | 0.15 | 0.15 | 84 | 1006.0 |
| 20260903041506 | 13 | 184 | 0.0 | 0.0 | 0.13 | 0.13 | 0.13 | 84 | 1006.0 |
| 20260903040008 | 13 | 189 | 0.0 | 0.0 | 0.10 | 0.10 | 0.10 | 82 | 1006.0 |
| 20260903034506 | 13 | 189 | 0.0 | 0.0 | 0.08 | 0.08 | 0.08 | 81 | 1006.1 |
| 20260903033005 | 14 | 216 | 0.0 | 0.0 | 0.03 | 0.03 | 0.03 | 79 | 1006.0 |
| 20260903031503 | 15 | 220 | 0.0 | 0.0 | 0.00 | 0.00 | 0.00 | 75 | 1005.9 |
| 20260903024600 | 16 | 223 | 0.0 | 0.0 | 0.00 | 0.00 | 0.00 | 66 | 1005.5 |
| 20260903023107 | 16 | 224 | 0.0 | 0.0 | 0.00 | 0.00 | 0.00 | 63 | 1005.4 |
| 20260903021605 | 17 | 215 | 0.0 | 0.0 | 0.00 | 0.00 | 0.00 | 59 | 1005.4 |
| 20260903014606 | 17 | 187 | 0.0 | 0.0 | 0.00 | 0.00 | 0.00 | 57 | 1005.4 |
| 20260903013101 | 17 | 193 | 0.0 | 0.0 | 0.00 | 0.00 | 0.00 | 57 | 1005.2 |
| 20260903011556 | 17 | 210 | 0.0 | 0.0 | 0.00 | 0.00 | 0.00 | 58 | 1005.2 |
| 20260903010056 | 18 | 207 | 0.0 | 0.0 | 0.00 | 0.00 | 0.00 | 52 | 1005.1 |
| 20260903004555 | 18 | 219 | 0.0 | 0.0 | 0.00 | 0.00 | 0.00 | 53 | 1005.1 |
| 20260903003054 | 18 | 239 | 0.0 | 0.0 | 0.00 | 0.00 | 0.00 | 54 | 1004.9 |
| 20260903001555 | 18 | 226 | 0.0 | 0.0 | 0.00 | 0.00 | 0.00 | 54 | 1004.7 |
| 20260903000054 | 19 | 257 | 0.0 | 0.0 | 0.00 | 0.00 | 0.00 | 54 | 1004.5 |
| 20260902234612 | 20 | 263 | 0.0 | 0.0 | 0.00 | 0.00 | 0.00 | 46 | 1004.3 |
| 20260902233053 | 20 | 274 | 0.0 | 0.0 | 0.00 | 0.00 | 0.00 | 44 | 1004.3 |
| 20260902231606 | 21 | 254 | 0.0 | 0.0 | 0.00 | 0.00 | 0.00 | 40 | 1004.2 |